Location: Brivio
(45.7333°N, 9.4500°E)
Time: 03:36:18
(UTC+00:00)

USA 116 - Pass Details

Date: 18 October 2019
Orbit: 405 x 834 km, 97.9° (Epoch: 18 November)

Event Time Altitude Azimuth Distance (km) Brightness Sun altitude
Rises 17:27:52 0° 20° (NNE) 2,351 6.7 -10.5°
Reaches altitude 10° 17:29:53 10° 29° (NNE) 1,501 5.6 -10.8°
Maximum altitude 17:32:54 40° 100° (E) 658 3.6 -11.4°
Drops below altitude 10° 17:36:05 10° 172° (S) 1,592 6.0 -11.9°
Sets 17:38:17 0° 179° (S) 2,517 7.1 -12.3°
